Time,TemperatureF,DewpointF,PressureIn,WindDirection,WindDirectionDegrees,WindSpeedMPH,WindSpeedGustMPH,Humidity,HourlyPrecipIn,Conditions,Clouds,dailyrainin,SoftwareType,DateUTC
2013-04-28 00:00:00,61.8,52.7,29.97,NNE,29,0.0,16.0,72,0.00,,,0.00,Wunderground v.1.15,2013-04-28 05:00:00,
2013-04-28 00:10:00,61.5,52.4,29.97,NNE,29,0.0,16.0,72,0.00,,,0.00,Wunderground v.1.15,2013-04-28 05:10:00,
2013-04-28 00:20:00,60.9,52.6,29.97,NNE,29,0.0,16.0,74,0.00,,,0.00,Wunderground v.1.15,2013-04-28 05:20:00,
2013-04-28 00:30:00,60.3,52.3,29.98,NNE,29,0.0,16.0,75,0.00,,,0.00,Wunderground v.1.15,2013-04-28 05:30:00,
2013-04-28 00:40:00,60.1,52.5,29.99,NNE,29,0.0,16.0,76,0.00,,,0.00,Wunderground v.1.15,2013-04-28 05:40:00,
2013-04-28 00:50:00,60.1,52.9,29.98,NNE,29,0.0,16.0,77,0.00,,,0.00,Wunderground v.1.15,2013-04-28 05:50:00,
2013-04-28 01:00:00,60.2,52.6,29.98,NNE,29,0.0,16.0,76,0.00,,,0.00,Wunderground v.1.15,2013-04-28 06:00:00,
2013-04-28 01:10:00,60.0,52.8,29.98,NNE,29,0.0,16.0,77,0.00,,,0.00,Wunderground v.1.15,2013-04-28 06:10:00,
2013-04-28 01:20:00,59.4,52.5,29.98,NNE,29,0.0,16.0,78,0.00,,,0.00,Wunderground v.1.15,2013-04-28 06:20:00,
2013-04-28 01:30:00,59.2,53.0,29.98,NNE,29,0.0,16.0,80,0.00,,,0.00,Wunderground v.1.15,2013-04-28 06:30:00,
2013-04-28 01:40:00,59.0,52.5,29.98,NNE,29,0.0,16.0,79,0.00,,,0.00,Wunderground v.1.15,2013-04-28 06:40:00,
2013-04-28 01:50:00,58.6,52.8,29.98,NNE,29,0.0,16.0,81,0.00,,,0.00,Wunderground v.1.15,2013-04-28 06:50:00,
2013-04-28 02:00:00,58.3,52.8,29.97,NNE,29,0.0,16.0,82,0.00,,,0.00,Wunderground v.1.15,2013-04-28 07:00:00,
2013-04-28 02:10:00,58.0,52.5,29.97,NNE,29,0.0,16.0,82,0.00,,,0.00,Wunderground v.1.15,2013-04-28 07:10:00,
2013-04-28 02:20:00,57.7,52.2,29.96,NNE,29,0.0,16.0,82,0.00,,,0.00,Wunderground v.1.15,2013-04-28 07:20:00,
2013-04-28 02:30:00,57.4,52.3,29.96,NNE,29,0.0,16.0,83,0.00,,,0.00,Wunderground v.1.15,2013-04-28 07:30:00,
2013-04-28 02:40:00,56.9,52.1,29.95,NNE,29,0.0,16.0,84,0.00,,,0.00,Wunderground v.1.15,2013-04-28 07:40:00,
2013-04-28 02:50:00,56.4,51.6,29.95,NNE,29,0.0,16.0,84,0.00,,,0.00,Wunderground v.1.15,2013-04-28 07:50:00,
2013-04-28 03:00:00,56.2,52.1,29.95,NNE,29,0.0,16.0,86,0.00,,,0.00,Wunderground v.1.15,2013-04-28 08:00:00,
2013-04-28 03:10:00,56.0,51.2,29.95,NNE,29,0.0,16.0,84,0.00,,,0.00,Wunderground v.1.15,2013-04-28 08:10:00,
2013-04-28 03:20:00,55.1,51.3,29.95,NNE,29,0.0,16.0,87,0.00,,,0.00,Wunderground v.1.15,2013-04-28 08:20:00,
2013-04-28 03:30:00,55.3,52.1,29.94,NNE,29,0.0,16.0,89,0.00,,,0.00,Wunderground v.1.15,2013-04-28 08:30:00,
2013-04-28 03:40:00,55.8,52.0,29.95,NNE,29,0.0,16.0,87,0.00,,,0.00,Wunderground v.1.15,2013-04-28 08:40:00,
2013-04-28 03:50:00,55.5,51.7,29.95,NNE,29,0.0,16.0,87,0.00,,,0.00,Wunderground v.1.15,2013-04-28 08:50:00,
2013-04-28 04:00:00,54.7,50.0,29.95,NNE,29,0.0,16.0,84,0.00,,,0.00,Wunderground v.1.15,2013-04-28 09:00:00,
2013-04-28 04:10:00,53.6,49.5,29.94,NNE,29,0.0,16.0,86,0.00,,,0.00,Wunderground v.1.15,2013-04-28 09:10:00,
2013-04-28 04:20:00,53.0,49.2,29.94,NNE,29,0.0,16.0,87,0.00,,,0.00,Wunderground v.1.15,2013-04-28 09:20:00,
2013-04-28 04:30:00,52.5,48.7,29.95,NNE,29,0.0,16.0,87,0.00,,,0.00,Wunderground v.1.15,2013-04-28 09:30:00,
2013-04-28 04:40:00,52.1,48.7,29.95,NNE,29,0.0,16.0,88,0.00,,,0.00,Wunderground v.1.15,2013-04-28 09:40:00,
2013-04-28 04:50:00,51.9,49.1,29.95,NNE,29,0.0,16.0,90,0.00,,,0.00,Wunderground v.1.15,2013-04-28 09:50:00,
2013-04-28 05:00:00,52.3,50.0,29.94,NNE,29,0.0,16.0,92,0.00,,,0.00,Wunderground v.1.15,2013-04-28 10:00:00,
2013-04-28 05:10:00,52.8,50.8,29.94,NNE,29,0.0,16.0,93,0.00,,,0.00,Wunderground v.1.15,2013-04-28 10:10:00,
2013-04-28 05:20:00,53.2,51.2,29.94,NNE,29,0.0,16.0,93,0.00,,,0.00,Wunderground v.1.15,2013-04-28 10:20:00,
2013-04-28 05:30:00,53.7,51.7,29.93,NNE,29,0.0,16.0,93,0.00,,,0.00,Wunderground v.1.15,2013-04-28 10:30:00,
2013-04-28 05:40:00,53.3,50.4,29.93,NNE,29,0.0,16.0,90,0.00,,,0.00,Wunderground v.1.15,2013-04-28 10:40:00,
2013-04-28 05:50:00,52.3,49.5,29.93,NNE,29,0.0,16.0,90,0.00,,,0.00,Wunderground v.1.15,2013-04-28 10:50:00,
2013-04-28 06:00:00,51.7,48.6,29.93,NNE,29,0.0,16.0,89,0.00,,,0.00,Wunderground v.1.15,2013-04-28 11:00:00,
2013-04-28 06:10:00,51.1,48.3,29.93,NNE,29,0.0,16.0,90,0.00,,,0.00,Wunderground v.1.15,2013-04-28 11:10:00,
2013-04-28 06:20:00,51.0,48.5,29.92,NNE,29,0.0,16.0,91,0.00,,,0.00,Wunderground v.1.15,2013-04-28 11:20:00,
2013-04-28 06:30:00,50.8,48.6,29.93,NNE,29,0.0,16.0,92,0.00,,,0.00,Wunderground v.1.15,2013-04-28 11:30:00,
2013-04-28 06:40:00,50.9,48.7,29.93,NNE,29,0.0,16.0,92,0.00,,,0.00,Wunderground v.1.15,2013-04-28 11:40:00,
2013-04-28 06:50:00,50.9,48.7,29.92,NNE,29,0.0,16.0,92,0.00,,,0.00,Wunderground v.1.15,2013-04-28 11:50:00,
2013-04-28 07:00:00,51.3,49.3,29.93,NNE,29,0.0,16.0,93,0.00,,,0.00,Wunderground v.1.15,2013-04-28 12:00:00,
2013-04-28 07:10:00,51.0,48.8,29.93,NNE,29,0.0,16.0,92,0.00,,,0.00,Wunderground v.1.15,2013-04-28 12:10:00,
2013-04-28 07:20:00,50.7,48.5,29.93,NNE,29,0.0,16.0,92,0.00,,,0.00,Wunderground v.1.15,2013-04-28 12:20:00,
2013-04-28 07:30:00,51.6,49.9,29.93,NNE,29,0.0,16.0,94,0.00,,,0.00,Wunderground v.1.15,2013-04-28 12:30:00,
2013-04-28 07:40:00,52.3,50.6,29.94,NNE,29,0.0,16.0,94,0.00,,,0.00,Wunderground v.1.15,2013-04-28 12:40:00,
2013-04-28 07:50:00,54.3,52.6,29.94,NNE,29,0.0,16.0,94,0.00,,,0.00,Wunderground v.1.15,2013-04-28 12:50:00,
2013-04-28 08:00:00,56.1,54.1,29.93,NNE,29,0.0,16.0,93,0.00,,,0.00,Wunderground v.1.15,2013-04-28 13:00:00,
2013-04-28 08:10:00,57.8,54.6,29.94,NE,38,0.0,16.0,89,0.00,,,0.00,Wunderground v.1.15,2013-04-28 13:10:00,
2013-04-28 08:20:00,59.2,55.3,29.94,NE,38,0.0,16.0,87,0.00,,,0.00,Wunderground v.1.15,2013-04-28 13:20:00,
2013-04-28 08:30:00,60.5,55.6,29.94,NE,38,0.0,16.0,84,0.00,,,0.00,Wunderground v.1.15,2013-04-28 13:30:00,
2013-04-28 08:40:00,61.5,56.6,29.94,NE,38,0.0,16.0,84,0.00,,,0.00,Wunderground v.1.15,2013-04-28 13:40:00,
2013-04-28 08:50:00,63.0,57.4,29.94,NE,38,0.0,16.0,82,0.00,,,0.00,Wunderground v.1.15,2013-04-28 13:50:00,
2013-04-28 09:00:00,64.2,58.6,29.94,NE,38,0.0,16.0,82,0.00,,,0.00,Wunderground v.1.15,2013-04-28 14:00:00,
2013-04-28 09:10:00,65.4,59.4,29.93,NE,38,0.0,16.0,81,0.00,,,0.00,Wunderground v.1.15,2013-04-28 14:10:00,
2013-04-28 09:20:00,66.3,59.9,29.93,NE,38,0.0,16.0,80,0.00,,,0.00,Wunderground v.1.15,2013-04-28 14:20:00,
2013-04-28 09:30:00,67.6,60.1,29.93,NE,38,0.0,16.0,77,0.00,,,0.00,Wunderground v.1.15,2013-04-28 14:30:00,
2013-04-28 09:40:00,69.1,61.2,29.93,NE,38,0.0,16.0,76,0.00,,,0.00,Wunderground v.1.15,2013-04-28 14:40:00,
2013-04-28 09:50:00,70.3,61.2,29.93,NE,38,0.0,16.0,73,0.00,,,0.00,Wunderground v.1.15,2013-04-28 14:50:00,
2013-04-28 10:00:00,71.2,61.3,29.93,NE,34,0.0,16.0,71,0.00,,,0.00,Wunderground v.1.15,2013-04-28 15:00:00,
2013-04-28 10:10:00,72.4,62.1,29.93,NE,34,0.0,16.0,70,0.00,,,0.00,Wunderground v.1.15,2013-04-28 15:10:00,
2013-04-28 10:20:00,73.2,62.0,29.93,NE,37,0.0,16.0,68,0.00,,,0.00,Wunderground v.1.15,2013-04-28 15:20:00,
2013-04-28 10:30:00,73.4,62.2,29.92,NE,38,1.0,1.0,68,0.00,,,0.00,Wunderground v.1.15,2013-04-28 15:30:00,
2013-04-28 10:40:00,74.0,62.8,29.92,NE,42,0.0,16.0,68,0.00,,,0.00,Wunderground v.1.15,2013-04-28 15:40:00,
2013-04-28 10:50:00,75.0,62.9,29.92,East,92,1.0,1.0,66,0.00,,,0.00,Wunderground v.1.15,2013-04-28 15:50:00,
2013-04-28 11:00:00,76.2,62.7,29.92,SSE,161,2.0,2.0,63,0.00,,,0.00,Wunderground v.1.15,2013-04-28 16:00:00,
2013-04-28 11:10:00,76.9,63.8,29.92,SSE,158,2.0,2.0,64,0.00,,,0.00,Wunderground v.1.15,2013-04-28 16:10:00,
2013-04-28 11:20:00,77.8,63.3,29.91,SSE,151,1.0,1.0,61,0.00,,,0.00,Wunderground v.1.15,2013-04-28 16:20:00,
2013-04-28 11:30:00,78.6,62.6,29.91,SSE,151,2.0,2.0,58,0.00,,,0.00,Wunderground v.1.15,2013-04-28 16:30:00,
2013-04-28 11:40:00,79.4,63.3,29.91,SSE,151,0.0,16.0,58,0.00,,,0.00,Wunderground v.1.15,2013-04-28 16:40:00,
2013-04-28 11:50:00,79.7,63.1,29.91,SSE,147,2.0,16.0,57,0.00,,,0.00,Wunderground v.1.15,2013-04-28 16:50:00,
2013-04-28 12:00:00,80.0,62.4,29.91,SE,138,6.0,16.0,55,0.00,,,0.00,Wunderground v.1.15,2013-04-28 17:00:00,
2013-04-28 12:10:00,80.4,62.2,29.90,SE,131,2.0,16.0,54,0.00,,,0.00,Wunderground v.1.15,2013-04-28 17:10:00,
2013-04-28 12:20:00,81.1,62.3,29.90,SE,138,4.0,4.0,53,0.00,,,0.00,Wunderground v.1.15,2013-04-28 17:20:00,
2013-04-28 12:30:00,81.6,62.8,29.89,SSE,167,1.0,16.0,53,0.00,,,0.00,Wunderground v.1.15,2013-04-28 17:30:00,
2013-04-28 12:40:00,82.1,62.2,29.89,South,172,2.0,2.0,51,0.00,,,0.00,Wunderground v.1.15,2013-04-28 17:40:00,
2013-04-28 12:50:00,82.9,60.0,29.88,SSW,200,5.0,16.0,46,0.00,,,0.00,Wunderground v.1.15,2013-04-28 17:50:00,
2013-04-28 13:00:00,83.1,59.6,29.88,South,171,3.0,16.0,45,0.00,,,0.00,Wunderground v.1.15,2013-04-28 18:00:00,
2013-04-28 13:10:00,83.6,60.6,29.88,South,173,2.0,2.0,46,0.00,,,0.00,Wunderground v.1.15,2013-04-28 18:10:00,
2013-04-28 13:20:00,83.8,58.3,29.88,South,174,6.0,6.0,42,0.00,,,0.00,Wunderground v.1.15,2013-04-28 18:20:00,
2013-04-28 13:30:00,84.0,59.1,29.87,SE,128,5.0,5.0,43,0.00,,,0.00,Wunderground v.1.15,2013-04-28 18:30:00,
2013-04-28 13:40:00,84.5,58.9,29.87,SE,130,1.0,16.0,42,0.00,,,0.00,Wunderground v.1.15,2013-04-28 18:40:00,
2013-04-28 13:50:00,84.5,57.5,29.87,SE,138,5.0,5.0,40,0.00,,,0.00,Wunderground v.1.15,2013-04-28 18:50:00,
2013-04-28 14:00:00,85.7,57.9,29.86,South,179,7.0,16.0,39,0.00,,,0.00,Wunderground v.1.15,2013-04-28 19:00:00,
2013-04-28 14:10:00,85.6,57.1,29.86,South,171,5.0,5.0,38,0.00,,,0.00,Wunderground v.1.15,2013-04-28 19:10:00,
2013-04-28 14:20:00,85.5,56.3,29.85,SE,136,3.0,16.0,37,0.00,,,0.00,Wunderground v.1.15,2013-04-28 19:20:00,
2013-04-28 14:30:00,85.5,57.0,29.85,SE,130,5.0,16.0,38,0.00,,,0.00,Wunderground v.1.15,2013-04-28 19:30:00,
2013-04-28 14:40:00,85.5,54.7,29.84,South,173,4.0,16.0,35,0.00,,,0.00,Wunderground v.1.15,2013-04-28 19:40:00,
2013-04-28 14:50:00,86.5,54.8,29.84,South,169,5.0,5.0,34,0.00,,,0.00,Wunderground v.1.15,2013-04-28 19:50:00,
2013-04-28 15:00:00,86.3,54.6,29.83,SE,138,5.0,16.0,34,0.00,,,0.00,Wunderground v.1.15,2013-04-28 20:00:00,
2013-04-28 15:10:00,86.6,55.7,29.83,SE,144,5.0,16.0,35,0.00,,,0.00,Wunderground v.1.15,2013-04-28 20:10:00,
2013-04-28 15:20:00,87.2,54.6,29.82,SE,132,7.0,16.0,33,0.00,,,0.00,Wunderground v.1.15,2013-04-28 20:20:00,
2013-04-28 15:30:00,87.2,54.6,29.81,SE,133,6.0,16.0,33,0.00,,,0.00,Wunderground v.1.15,2013-04-28 20:30:00,
2013-04-28 15:40:00,86.6,50.6,29.81,South,171,7.0,7.0,29,0.00,,,0.00,Wunderground v.1.15,2013-04-28 20:40:00,
2013-04-28 15:50:00,87.4,52.2,29.80,South,180,4.0,16.0,30,0.00,,,0.00,Wunderground v.1.15,2013-04-28 20:50:00,
2013-04-28 16:00:00,88.2,51.9,29.80,SSE,165,4.0,16.0,29,0.00,,,0.00,Wunderground v.1.15,2013-04-28 21:00:00,
2013-04-28 16:10:00,88.2,51.0,29.79,SE,141,8.0,8.0,28,0.00,,,0.00,Wunderground v.1.15,2013-04-28 21:10:00,
2013-04-28 16:20:00,87.5,51.3,29.78,SSE,167,7.0,16.0,29,0.00,,,0.00,Wunderground v.1.15,2013-04-28 21:20:00,
2013-04-28 16:30:00,86.4,49.4,29.78,South,173,5.0,5.0,28,0.00,,,0.00,Wunderground v.1.15,2013-04-28 21:30:00,
2013-04-28 16:40:00,86.5,48.5,29.78,SSE,165,2.0,16.0,27,0.00,,,0.00,Wunderground v.1.15,2013-04-28 21:40:00,
2013-04-28 16:50:00,87.7,48.6,29.77,SE,135,5.0,16.0,26,0.00,,,0.00,Wunderground v.1.15,2013-04-28 21:50:00,
2013-04-28 17:00:00,88.2,49.0,29.77,SSE,164,7.0,16.0,26,0.00,,,0.00,Wunderground v.1.15,2013-04-28 22:00:00,
2013-04-28 17:10:00,87.3,49.2,29.77,SSE,155,7.0,7.0,27,0.00,,,0.00,Wunderground v.1.15,2013-04-28 22:10:00,
2013-04-28 17:20:00,86.9,49.9,29.76,South,170,7.0,16.0,28,0.00,,,0.00,Wunderground v.1.15,2013-04-28 22:20:00,
2013-04-28 17:30:00,87.0,49.0,29.76,East,95,3.0,3.0,27,0.00,,,0.00,Wunderground v.1.15,2013-04-28 22:30:00,
2013-04-28 17:40:00,87.4,47.3,29.76,SE,134,7.0,16.0,25,0.00,,,0.00,Wunderground v.1.15,2013-04-28 22:40:00,
2013-04-28 17:50:00,87.6,47.4,29.75,SSE,147,6.0,16.0,25,0.00,,,0.00,Wunderground v.1.15,2013-04-28 22:50:00,
2013-04-28 18:00:00,87.5,47.3,29.75,South,190,7.0,7.0,25,0.00,,,0.00,Wunderground v.1.15,2013-04-28 23:00:00,
2013-04-28 18:10:00,87.4,47.3,29.75,South,177,6.0,16.0,25,0.00,,,0.00,Wunderground v.1.15,2013-04-28 23:10:00,
2013-04-28 18:20:00,87.1,47.0,29.75,SSE,150,8.0,8.0,25,0.00,,,0.00,Wunderground v.1.15,2013-04-28 23:20:00,
2013-04-28 18:30:00,86.9,46.8,29.75,SE,144,9.0,9.0,25,0.00,,,0.00,Wunderground v.1.15,2013-04-28 23:30:00,
2013-04-28 18:40:00,86.8,46.8,29.75,SSE,151,8.0,16.0,25,0.00,,,0.00,Wunderground v.1.15,2013-04-28 23:40:00,
2013-04-28 18:50:00,86.4,47.5,29.76,SE,145,9.0,9.0,26,0.00,,,0.00,Wunderground v.1.15,2013-04-28 23:50:00,
2013-04-28 19:00:00,86.1,46.2,29.76,ESE,121,8.0,8.0,25,0.00,,,0.00,Wunderground v.1.15,2013-04-29 00:00:00,
2013-04-28 19:10:00,85.9,46.0,29.76,SE,144,7.0,7.0,25,0.00,,,0.00,Wunderground v.1.15,2013-04-29 00:10:00,
2013-04-28 19:20:00,85.4,46.6,29.76,SE,137,7.0,7.0,26,0.00,,,0.00,Wunderground v.1.15,2013-04-29 00:20:00,
2013-04-28 19:30:00,84.2,52.0,29.76,ESE,109,10.0,10.0,33,0.00,,,0.00,Wunderground v.1.15,2013-04-29 00:30:00,
2013-04-28 19:40:00,83.6,51.5,29.76,ESE,118,8.0,8.0,33,0.00,,,0.00,Wunderground v.1.15,2013-04-29 00:40:00,
2013-04-28 19:50:00,82.9,51.6,29.77,SE,132,5.0,5.0,34,0.00,,,0.00,Wunderground v.1.15,2013-04-29 00:50:00,
2013-04-28 20:00:00,82.1,52.5,29.77,SE,128,6.0,6.0,36,0.00,,,0.00,Wunderground v.1.15,2013-04-29 01:00:00,
2013-04-28 20:10:00,81.1,52.4,29.78,SE,136,4.0,4.0,37,0.00,,,0.00,Wunderground v.1.15,2013-04-29 01:10:00,
2013-04-28 20:20:00,79.9,52.7,29.78,SE,136,1.0,1.0,39,0.00,,,0.00,Wunderground v.1.15,2013-04-29 01:20:00,
2013-04-28 20:30:00,78.7,51.7,29.78,SE,136,0.0,16.0,39,0.00,,,0.00,Wunderground v.1.15,2013-04-29 01:30:00,
2013-04-28 20:40:00,77.7,51.5,29.79,SE,136,0.0,16.0,40,0.00,,,0.00,Wunderground v.1.15,2013-04-29 01:40:00,
2013-04-28 20:50:00,77.2,51.7,29.79,SE,136,1.0,16.0,41,0.00,,,0.00,Wunderground v.1.15,2013-04-29 01:50:00,
2013-04-28 21:00:00,77.3,51.8,29.79,SE,142,3.0,16.0,41,0.00,,,0.00,Wunderground v.1.15,2013-04-29 02:00:00,
2013-04-28 21:10:00,77.0,52.1,29.79,SE,146,4.0,16.0,42,0.00,,,0.00,Wunderground v.1.15,2013-04-29 02:10:00,
2013-04-28 21:20:00,76.8,52.0,29.79,SE,146,6.0,16.0,42,0.00,,,0.00,Wunderground v.1.15,2013-04-29 02:20:00,
2013-04-28 21:30:00,76.6,52.4,29.79,SSE,148,5.0,16.0,43,0.00,,,0.00,Wunderground v.1.15,2013-04-29 02:30:00,
2013-04-28 21:40:00,76.5,52.3,29.80,SE,145,7.0,7.0,43,0.00,,,0.00,Wunderground v.1.15,2013-04-29 02:40:00,
2013-04-28 21:50:00,76.4,52.9,29.81,SSE,147,9.0,16.0,44,0.00,,,0.00,Wunderground v.1.15,2013-04-29 02:50:00,
2013-04-28 22:00:00,75.8,52.9,29.82,SSE,150,7.0,7.0,45,0.00,,,0.00,Wunderground v.1.15,2013-04-29 03:00:00,
2013-04-28 22:10:00,75.3,53.1,29.82,SSE,155,6.0,16.0,46,0.00,,,0.00,Wunderground v.1.15,2013-04-29 03:10:00,
2013-04-28 22:20:00,75.1,53.5,29.83,SSE,159,8.0,8.0,47,0.00,,,0.00,Wunderground v.1.15,2013-04-29 03:20:00,
2013-04-28 22:30:00,74.8,54.4,29.83,SSE,156,8.0,16.0,49,0.00,,,0.00,Wunderground v.1.15,2013-04-29 03:30:00,
2013-04-28 22:40:00,74.5,54.6,29.84,SSE,157,8.0,8.0,50,0.00,,,0.00,Wunderground v.1.15,2013-04-29 03:40:00,
2013-04-28 22:50:00,74.2,54.9,29.84,SSE,165,7.0,16.0,51,0.00,,,0.00,Wunderground v.1.15,2013-04-29 03:50:00,
2013-04-28 23:00:00,74.1,55.3,29.83,SSE,152,8.0,8.0,52,0.00,,,0.00,Wunderground v.1.15,2013-04-29 04:00:00,
2013-04-28 23:10:00,74.2,56.0,29.84,SSE,151,8.0,16.0,53,0.00,,,0.00,Wunderground v.1.15,2013-04-29 04:10:00,
2013-04-28 23:20:00,73.9,56.2,29.84,SSE,165,9.0,16.0,54,0.00,,,0.00,Wunderground v.1.15,2013-04-29 04:20:00,
2013-04-28 23:30:00,73.6,56.4,29.84,SSE,155,9.0,9.0,55,0.00,,,0.00,Wunderground v.1.15,2013-04-29 04:30:00,
2013-04-28 23:40:00,73.2,56.1,29.84,SSE,161,7.0,16.0,55,0.00,,,0.00,Wunderground v.1.15,2013-04-29 04:40:00,
2013-04-28 23:50:00,72.8,56.2,29.83,SSE,153,5.0,16.0,56,0.00,,,0.00,Wunderground v.1.15,2013-04-29 04:50:00,